SCOUT A DEB, 2644

Orbit data source: Space-Track

SCOUT A DEB, 2644 is space debris in LEO originally from a launch on Thu, 19 May 1966 UTC launched from the Air Force Western Test Range (AFWTR). Debris objects in space refer to the collection of defunct objects orbiting the Earth. Examples of debris include non-operational satellites, rocket bodies, and fragments generated from explosions, collisions, or faulty payload assembly.

Loading next visibility...
Identifier
2644, 1966-041D
Orbit
LEO
Country
Flag of USUS
Related business
Manufacturer
Unknown
Mission
Spacecraft
Bus & Motor
Unknown
Mass
Unknown
Launch date (UTC)
1966-05-19 (60 years ago)
Launch vehicle
Unknown
Launch site
Air Force Western Test Range (AFWTR)
Object type
Payload
Rocket body
Debris
Shape & HBR
Unknown shape, 0.1 m
Radar Cross Section
Small (<0.1 m²)

Expand to show TLE details & history
Last TLE update: 2 days ago

TLE from 2 days ago
0 SCOUT A DEB
1  2644U 66041D   26070.91027568  .00000426  00000-0  35943-3 0  9995
2  2644  90.1631  43.5938 0210540 302.4275  55.6680 13.77162250985304
Epoch: 2026-03-11T21:50Z
TLE epoch observation values (Epoch: 2026-03-11T21:50:47.818Z)
Latitude
-0.00003°
Longitude
-93.67318°
Altitude
891.909 km
Speed
7.449 km/s
True Right ascension
02h 54m 22s
True Declination
0° 00' 00"
Sunlit
Object was in daylight at epoch
Visualization orbit readout
Latitude
Unknown
Longitude
Unknown
Altitude
Unknown
Speed
Unknown
Apparent Right ascension
Unknown
Apparent Declination
Unknown
Sunlit
N/A
Visualization observer readout
Local Sidereal Time
07:31:36
Azimuth
Unknown
Elevation
Unknown
Doppler factor
Unknown
Orbital elements
Apogee altitude
1,125.706 km
Perigee altitude
816.249 km
Semi-major axis
7,349.114 km
Eccentricity
0.02105
Inclination
90.1631°
RAAN
43.5938°
Arg. of periapsis
302.4275°
True anomaly
57.68987°
Mean anomaly
55.668°
Eccentric anomaly
56.67596°
Mean motion
3.44501 °/min
Orbital period
104.5 mins
BSTAR
0.00035943
Loading maneuver chart data...
Computing Atmospheric mass density...
Loading historical data...
Loading historical data...
Loading historical data...
Loading historical data...
Loading historical data...
Loading historical data...
Loading historical data...

Documentation

Showing up to 5 results
|